Location: Cassano d�Adda
(45.5333°N, 9.5167°E)
Time: 10:00:01
(UTC+00:00)

Genesis I - Pass Details

Date: 08 December 2019
Orbit: 494 x 529 km, 64.5° (Epoch: 20 January)

Event Time Altitude Azimuth Distance (km) Brightness Sun altitude
Rises 17:24:04 0° 329° (NNW) 2,647 7.0 -17.7°
Reaches altitude 10° 17:26:23 10° 338° (NNW) 1,750 6.0 -18.1°
Enters shadow 17:29:24 34° 23° (NNE) 863 4.0 -18.6°
